[[{"header":{"parameterUnit":"m.s-1","parameterCategory":1,"la1":30.2991,"la2":30.254,"lo1":-89.0895,"lo2":-89.0444,"dy":0.0017,"dx":0.0017,"nx":28,"ny":28,"refTime":"2024-06-01T21:00:00:Z","depth":0,"parameterNumber":2,"parameterNumberName":"U-component_of_WINDS"},"data":[0,0,0,0,0,0,0,0,0,0,0,0,0,0,0,0,0,0,0,0,0,0,0,0,0,0,0,0,0,0,0,0,0,0,0,0,0,0,0,0,0,0,0,0,0,0,0,0,0,0,0,0,0,0,0,0,0,0,0.5304,0.5305,0,0.5411,0.5412,0.5413,0.5444,0.5444,0.5443,0.5443,0.5551,0.5554,0.5557,0,0,0,0,0,0,0,0,0,0,0,0,0,0.5125,0.5128,0.5303,0.5305,0.5306,0.541,0.5412,0.5413,0.5444,0.5444,0.5443,0.5442,0.555,0.5554,0.5558,0,0,0,0,0,0,0,0,0,0,0,0,0,0.5214,0.5129,0.5303,0.5334,0.5338,0.541,0.5412,0.5414,0.5445,0.5444,0.5443,0.5442,0.5548,0.5553,0.5558,0.5607,0,0,0.5574,0.5576,0,0,0,0,0,0,0,0,0.5209,0.5221,0.5328,0.5332,0.5337,0.5413,0.5389,0.5478,0.5445,0.5404,0.5443,0.5442,0.5506,0.5514,0.5536,0.5612,0.5616,0.5574,0.5577,0.558,0.5581,0,0,0,0,0,0,0,0.5203,0.5217,0.5346,0.533,0.5335,0.5343,0.5354,0.5406,0.5458,0.5408,0.541,0.5422,0.5508,0.5531,0.5539,0.5618,0.5574,0.5579,0.5582,0.5584,0.5739,0.574,0,0,0,0,0,0,0.5192,0.5211,0.5342,0.5349,0.527,0.5347,0.536,0.539,0.5458,0.5467,0.5423,0.5424,0.5523,0.5533,0.5543,0.5604,0.558,0.5584,0.5587,0.5738,0.5739,0.574,0,0,0,0,0,0,0.5188,0.5203,0.5338,0.5281,0.5299,0.5351,0.5384,0.5392,0.5415,0.547,0.5479,0.5437,0.5523,0.5536,0.5591,0.5608,0.5587,0.5591,0.5737,0.5738,0.574,0.5726,0,0,0,0,0,0,0.5183,0.5202,0.5221,0.5281,0.5302,0.5384,0.5385,0.5395,0.5424,0.5426,0.5485,0.5494,0.5523,0.5583,0.5596,0.5615,0.5595,0.5735,0.5737,0.5739,0.5725,0.5727,0.5729,0,0,0,0,0,0.5176,0.5212,0.5221,0.5237,0.5326,0.5385,0.5397,0.5429,0.5426,0.5445,0.548,0.5492,0.5604,0.5588,0.5603,0.5624,0.5734,0.5737,0.5739,0.5725,0.5727,0.5729,0,0,0,0,0,0,0.5151,0.522,0.5232,0.5288,0.5331,0.539,0.5416,0.5431,0.5475,0.5474,0.5512,0.5526,0.5578,0.5607,0.5588,0.5674,0.567,0.5675,0.5654,0.5656,0.5658,0.565,0.56,0,0,0,0,0,0.5153,0.5195,0.5253,0.5297,0.5318,0.5363,0.539,0.5412,0.5457,0.5475,0.5514,0.5557,0.5602,0.5631,0.5675,0.573,0.5743,0.5752,0.5753,0.5754,0.5758,0.579,0.5794,0.5748,0.5748,0.5748,0,0,0.5155,0.5198,0.5223,0.5294,0.5329,0.5372,0.5378,0.5423,0.5455,0.5482,0.5536,0.5566,0.5617,0.5673,0.5699,0.5698,0.5774,0.5757,0.5758,0.5762,0.5793,0.5797,0.5801,0.575,0.575,0.5749,0,0,0.5182,0.5219,0.526,0.5296,0.535,0.538,0.539,0.5448,0.5469,0.5525,0.5546,0.5584,0.5661,0.5696,0.5724,0.5766,0.5779,0.5779,0.5788,0.5818,0.5822,0.5825,0.584,0.5844,0.5783,0.5783,0.5783,0,0.5178,0.5244,0.5279,0.5324,0.5354,0.5381,0.5423,0.5456,0.5521,0.5542,0.554,0.5637,0.5673,0.5737,0.5748,0.5769,0.5782,0.5772,0.5818,0.5822,0.5826,0.584,0.5845,0.5783,0.5783,0.5783,0.5783,0,0.5237,0.5282,0.5309,0.5372,0.5406,0.5449,0.549,0.552,0.5539,0.5569,0.5626,0.567,0.5724,0.5741,0.576,0.5808,0.5806,0.5811,0.5807,0.5829,0.5843,0.5849,0.5782,0.5783,0.5783,0.5783,0,0,0.5249,0.5333,0.5342,0.5372,0.5434,0.5469,0.5514,0.5567,0.5592,0.5637,0.5674,0.5739,0.5744,0.5776,0.5799,0.5826,0.5856,0.5828,0.5829,0.5831,0.5912,0.5907,0.5913,0.5865,0.5867,0.5867,0.5907,0,0.5284,0.5364,0.5398,0.5463,0.5505,0.5532,0.5571,0.5613,0.5642,0.5683,0.5715,0.576,0.5764,0.5783,0.5811,0.5846,0.5872,0.5844,0.59,0.5902,0.5886,0.5921,0.5916,0.5951,0.5913,0.5914,0.5915,0,0.5334,0.538,0.5449,0.5507,0.5526,0.556,0.5613,0.5651,0.5699,0.5719,0.5755,0.5777,0.5824,0.5818,0.5883,0.5863,0.5889,0.591,0.5912,0.5918,0.5909,0.5927,0.5963,0.5968,0.5924,0.5923,0.5923,0,0.5336,0.5415,0.5467,0.5492,0.556,0.5584,0.5613,0.5661,0.5692,0.5737,0.5757,0.5807,0.5835,0.5873,0.5908,0.59,0.597,0.5967,0.5987,0.5987,0.6,0.5999,0.6041,0.6018,0.6017,0.6017,0.6017,0,0.5371,0.5412,0.5469,0.5501,0.5548,0.5586,0.5632,0.5663,0.5706,0.5744,0.577,0.5806,0.585,0.5891,0.5918,0.5968,0.5981,0.5998,0.6004,0.5995,0.5993,0.6011,0.601,0.6019,0.6018,0.6018,0.6018,0,0.538,0.542,0.5479,0.554,0.5556,0.5588,0.564,0.5672,0.5703,0.5751,0.5765,0.5814,0.5863,0.5902,0.5966,0.5985,0.6038,0.6045,0.6021,0.6025,0.6043,0.6041,0.6098,0.6108,0.6078,0.6079,0.6079,0,0.5399,0.5432,0.5497,0.5525,0.5554,0.5599,0.563,0.5669,0.5701,0.5759,0.5784,0.5836,0.5879,0.5957,0.5998,0.6047,0.6056,0.6073,0.6064,0.6053,0.6056,0.6053,0.6057,0.6074,0.6074,0.6074,0.6074,0,0.5429,0.5447,0.5492,0.5544,0.5581,0.5623,0.5666,0.5687,0.5734,0.5768,0.582,0.5854,0.592,0.5971,0.6025,0.6055,0.6072,0.6077,0.6084,0.6075,0.6059,0.6068,0.6024,0.6075,0.6075,0.6075,0.6075,0.6075,0.5443,0.5474,0.5525,0.5574,0.561,0.565,0.5683,0.5719,0.5763,0.582,0.5841,0.5894,0.5942,0.6017,0.6048,0.6089,0.609,0.6101,0.6104,0.6105,0.6104,0.6053,0.6099,0.6099,0.6099,0.6099,0.6099,0,0.5474,0.5508,0.5553,0.5613,0.5652,0.5666,0.5714,0.5745,0.5792,0.5836,0.5878,0.5938,0.5987,0.6033,0.6085,0.6109,0.6119,0.6121,0.612,0.6126,0.6101,0.6089,0.6113,0.6113,0.6113,0.6113,0.6113,0.6113,0.5494,0.5546,0.5571,0.5642,0.5676,0.5729,0.5755,0.5792,0.5828,0.5893,0.5935,0.5964,0.6009,0.6065,0.6111,0.6123,0.614,0.6141,0.6155,0.613,0.6128,0.6126,0.6115,0.6145,0.6145,0.6178,0.6178,0.6178]},{"header":{"parameterUnit":"m.s-1","parameterCategory":1,"la1":30.2991,"la2":30.254,"lo1":-89.0895,"lo2":-89.0444,"dy":0.0017,"dx":0.0017,"nx":28,"ny":28,"refTime":"2024-06-01T21:00:00:Z","depth":0,"parameterNumber":3,"parameterNumberName":"V-component_of_WINDS"},"data":[0,0,0,0,0,0,0,0,0,0,0,0,0,0,0,0,0,0,0,0,0,0,0,0,0,0,0,0,0,0,0,0,0,0,0,0,0,0,0,0,0,0,0,0,0,0,0,0,0,0,0,0,0,0,0,0,0,0,2.7572,2.7572,0,2.7541,2.7541,2.7541,2.7418,2.7416,2.7413,2.741,2.7382,2.7384,2.7386,0,0,0,0,0,0,0,0,0,0,0,0,0,2.7528,2.7529,2.7572,2.7572,2.7571,2.7541,2.7541,2.754,2.7419,2.7415,2.7412,2.7409,2.7381,2.7384,2.7386,0,0,0,0,0,0,0,0,0,0,0,0,0,2.7527,2.753,2.7572,2.7507,2.7501,2.7541,2.7541,2.754,2.742,2.7415,2.7411,2.7407,2.7381,2.7383,2.7386,2.7488,0,0,2.7395,2.7396,0,0,0,0,0,0,0,0,2.7527,2.7529,2.7517,2.7511,2.7505,2.7479,2.7515,2.7523,2.7421,2.7451,2.741,2.7405,2.7418,2.7418,2.7421,2.7487,2.7486,2.7395,2.7397,2.7398,2.7399,0,0,0,0,0,0,0,2.7527,2.753,2.756,2.7517,2.7509,2.748,2.7475,2.7516,2.7459,2.7448,2.7439,2.7437,2.7414,2.7419,2.742,2.7485,2.7395,2.7398,2.7399,2.74,2.7631,2.7636,0,0,0,0,0,0,2.7536,2.753,2.7561,2.7559,2.7506,2.7484,2.7479,2.7492,2.7458,2.7448,2.744,2.7431,2.7416,2.7416,2.7418,2.7534,2.7398,2.7401,2.7402,2.7627,2.7632,2.7637,0,0,0,0,0,0,2.7536,2.754,2.7562,2.7542,2.7543,2.7489,2.7505,2.7493,2.7498,2.7452,2.7441,2.7455,2.7413,2.7414,2.7471,2.7531,2.7402,2.7405,2.7622,2.7629,2.7635,2.7767,0,0,0,0,0,0,2.7535,2.7541,2.7579,2.7544,2.7544,2.7615,2.7509,2.7496,2.7503,2.749,2.7464,2.7455,2.7409,2.7468,2.7474,2.7533,2.7407,2.7616,2.7625,2.7633,2.7757,2.7777,2.7795,0,0,0,0,0,2.7534,2.7619,2.7581,2.7586,2.759,2.7619,2.7619,2.7564,2.7508,2.7546,2.7516,2.7456,2.7524,2.7474,2.7481,2.7541,2.7612,2.7622,2.7632,2.7748,2.7773,2.7794,0,0,0,0,0,0,2.7664,2.7613,2.7571,2.7647,2.7638,2.7598,2.7644,2.7592,2.76,2.7589,2.7521,2.7516,2.7582,2.7567,2.7513,2.7637,2.7558,2.7569,2.7644,2.7667,2.7686,2.7688,2.7409,0,0,0,0,0,2.7701,2.7727,2.7682,2.7753,2.7751,2.7699,2.7709,2.7667,2.7656,2.7652,2.7626,2.7619,2.7637,2.7652,2.7667,2.7754,2.7746,2.7799,2.7818,2.7833,2.7844,2.7887,2.791,2.767,2.767,2.767,0,0,2.7778,2.7754,2.7775,2.7778,2.7767,2.7796,2.7696,2.7732,2.7753,2.7658,2.7709,2.769,2.7677,2.7749,2.7779,2.7738,2.7909,2.7846,2.7859,2.7861,2.79,2.7923,2.7943,2.7677,2.7675,2.7674,0,0,2.7934,2.7919,2.7975,2.7965,2.7947,2.7912,2.7926,2.7894,2.7877,2.7927,2.7855,2.788,2.7915,2.7907,2.7908,2.806,2.8004,2.8067,2.8165,2.8208,2.8227,2.8243,2.8296,2.8316,2.8078,2.8078,2.8078,0,2.8033,2.8073,2.8011,2.805,2.8054,2.7967,2.8023,2.8017,2.8006,2.8011,2.7965,2.8005,2.799,2.8058,2.8095,2.81,2.8113,2.8069,2.8229,2.8245,2.8259,2.8309,2.8329,2.8086,2.8085,2.8084,2.8083,0,2.8194,2.8224,2.8271,2.8261,2.827,2.8318,2.8263,2.828,2.8237,2.8207,2.8258,2.8237,2.8245,2.8259,2.8218,2.8321,2.8296,2.8241,2.8159,2.8291,2.8336,2.8354,2.8097,2.8094,2.8092,2.809,0,0,2.8432,2.8385,2.8403,2.8396,2.837,2.8392,2.8436,2.8442,2.8457,2.8453,2.8488,2.8518,2.8466,2.8468,2.8426,2.8464,2.8583,2.8403,2.8402,2.8436,2.8693,2.8733,2.8756,2.8546,2.8549,2.8552,2.8693,0,2.8579,2.8649,2.8594,2.8675,2.87,2.8617,2.8655,2.8644,2.8617,2.8634,2.8604,2.8627,2.8557,2.8557,2.8591,2.8561,2.8633,2.855,2.8577,2.8579,2.8582,2.878,2.8824,2.8958,2.8711,2.8714,2.8716,0,2.876,2.8761,2.8844,2.881,2.8818,2.8854,2.8854,2.8873,2.8858,2.8835,2.8835,2.8782,2.8823,2.8744,2.8799,2.8744,2.8752,2.8739,2.8743,2.8742,2.8655,2.8784,2.9,2.902,2.8743,2.8741,2.8739,0,2.8922,2.8945,2.8997,2.8994,2.8956,2.8983,2.8968,2.8949,2.8956,2.8957,2.896,2.8967,2.8971,2.8978,2.8928,2.8875,2.8989,2.8906,2.8971,2.8972,2.8998,2.8997,2.9217,2.9006,2.9005,2.9005,2.9005,0,2.9092,2.9145,2.9069,2.9101,2.9158,2.9094,2.9153,2.913,2.9114,2.914,2.907,2.9096,2.9029,2.9049,2.901,2.9061,2.9063,2.9046,2.9035,2.9052,2.9054,2.9055,2.9044,2.901,2.9009,2.9008,2.9007,0,2.9283,2.9234,2.9285,2.9244,2.9235,2.9279,2.9244,2.9272,2.924,2.9274,2.9278,2.9227,2.9246,2.9197,2.921,2.9184,2.9256,2.9231,2.9261,2.9252,2.9319,2.9313,2.9547,2.9574,2.9347,2.935,2.9351,0,2.9394,2.9432,2.9395,2.9407,2.9396,2.9416,2.9421,2.936,2.9369,2.9354,2.9384,2.9396,2.9403,2.9438,2.9403,2.9411,2.9385,2.9466,2.9386,2.9401,2.9384,2.9382,2.9385,2.9483,2.9486,2.9488,2.949,0,2.9595,2.9568,2.9578,2.958,2.9588,2.9588,2.9582,2.9596,2.953,2.9544,2.9561,2.9566,2.9577,2.9591,2.9592,2.9577,2.9523,2.9515,2.953,2.9547,2.9562,2.9554,2.9304,2.951,2.9508,2.9506,2.9505,2.9505,2.9748,2.9778,2.9755,2.9769,2.9757,2.9753,2.9776,2.9746,2.9759,2.9762,2.9725,2.975,2.9733,2.9727,2.9719,2.9738,2.9701,2.9723,2.9729,2.9735,2.9745,2.956,2.9738,2.9737,2.9737,2.9736,2.9736,0,2.9944,2.9925,2.9938,2.993,2.9941,2.9887,2.9877,2.989,2.9912,2.99,2.9907,2.9927,2.9939,2.9904,2.9911,2.9933,2.9908,2.9937,2.9934,2.9932,2.9779,2.9764,2.9957,2.9957,2.9957,2.9957,2.9957,2.9957,3.0047,3.0094,3.0065,3.0105,3.0086,3.0108,3.0107,3.0102,3.0092,3.0116,3.0125,3.0101,3.008,3.0084,3.0093,3.0082,3.0088,3.0125,3.0106,2.9964,2.9943,2.9922,2.9908,3.0127,3.0128,3.0257,3.0258,3.0259]}]]